Tracking 23752 objects as of 24-Oct-2021
HD Live streaming from Space Station
objects crossing your sky now

COSMOS 397 DEB

Track COSMOS 397 DEB now!
10-day predictions


NORAD ID: 5222
Int'l Code: 1971-015AW
Perigee: 559.3 km
Apogee: 1,613.1 km
Inclination: 65.7 °
Period: 106.8 minutes
Semi major axis: 7457 km
RCS: 0.0146 m2 (small)
Launch date: February 25, 1971
Source: Commonwealth of Independent States (former USSR) (CIS)
Launch site: TYURATAM MISSILE AND SPACE COMPLEX (TTMTR)

Note: This is SATELLITE DEBRIS
aabbcc
Your satellite tracking list
Your tracking list is empty




NASA's NSSDC Master Catalog

Two Line Element Set (TLE):
1  5222U 71015AW  21297.39775098  .00000460  00000-0  18546-3 0  9991
2  5222  65.7243 175.7899 0706543 354.2280   5.0921 13.48146716431775
Source of the keplerian elements: AFSPC